TimeEST,TemperatureF,Dew PointF,Humidity,Sea Level PressureIn,VisibilityMPH,Wind Direction,Wind SpeedMPH,Gust SpeedMPH,PrecipitationIn,Events,Conditions,WindDirDegrees,DateUTC
12:15 AM,33.8,28.4,81,30.01,10.0,Calm,Calm,-,N/A,,Clear,0,2013-02-15 05:15:00
12:35 AM,33.8,28.4,81,30.01,10.0,Calm,Calm,-,N/A,,Clear,0,2013-02-15 05:35:00
12:55 AM,30.2,26.6,86,30.01,10.0,Calm,Calm,-,N/A,,Clear,0,2013-02-15 05:55:00
1:15 AM,30.2,28.4,93,30.02,10.0,Calm,Calm,-,N/A,,Clear,0,2013-02-15 06:15:00
1:35 AM,30.2,26.6,86,30.02,10.0,SSW,3.5,-,N/A,,Clear,200,2013-02-15 06:35:00
1:55 AM,30.2,26.6,86,30.02,10.0,Calm,Calm,-,N/A,,Clear,0,2013-02-15 06:55:00
2:15 AM,30.2,26.6,86,30.02,10.0,Calm,Calm,-,N/A,,Clear,0,2013-02-15 07:15:00
2:35 AM,28.4,26.6,93,30.02,10.0,Calm,Calm,-,N/A,,Clear,0,2013-02-15 07:35:00
2:55 AM,30.2,26.6,86,30.02,10.0,SSW,4.6,-,N/A,,Clear,200,2013-02-15 07:55:00
3:15 AM,28.4,26.6,93,30.02,10.0,WNW,3.5,-,N/A,,Clear,300,2013-02-15 08:15:00
3:35 AM,28.4,26.6,93,30.02,10.0,Calm,Calm,-,N/A,,Scattered Clouds,0,2013-02-15 08:35:00
3:55 AM,28.4,26.6,93,30.02,10.0,Calm,Calm,-,N/A,,Clear,0,2013-02-15 08:55:00
4:15 AM,28.4,26.6,93,30.02,10.0,Calm,Calm,-,N/A,,Clear,0,2013-02-15 09:15:00
4:35 AM,28.4,26.6,93,30.02,10.0,Calm,Calm,-,N/A,,Scattered Clouds,0,2013-02-15 09:35:00
4:55 AM,28.4,26.6,93,30.02,10.0,Calm,Calm,-,N/A,,Clear,0,2013-02-15 09:55:00
5:15 AM,30.2,28.4,93,30.03,10.0,SW,5.8,-,N/A,,Clear,220,2013-02-15 10:15:00
5:35 AM,30.2,28.4,93,30.03,10.0,WSW,5.8,-,N/A,,Clear,240,2013-02-15 10:35:00
5:55 AM,28.4,26.6,93,30.03,10.0,Calm,Calm,-,N/A,,Clear,0,2013-02-15 10:55:00
6:15 AM,28.4,26.6,93,30.03,10.0,Calm,Calm,-,N/A,,Clear,0,2013-02-15 11:15:00
6:35 AM,28.4,28.4,100,30.02,10.0,Calm,Calm,-,N/A,,Clear,0,2013-02-15 11:35:00
6:55 AM,28.4,26.6,93,30.02,10.0,Calm,Calm,-,N/A,,Clear,0,2013-02-15 11:55:00
7:15 AM,26.6,26.6,100,30.03,7.0,Calm,Calm,-,N/A,,Clear,0,2013-02-15 12:15:00
7:35 AM,24.8,24.8,100,30.04,7.0,Calm,Calm,-,N/A,,Clear,0,2013-02-15 12:35:00
7:55 AM,28.4,26.6,93,30.05,10.0,Calm,Calm,-,N/A,,Clear,0,2013-02-15 12:55:00
8:15 AM,32.0,32.0,100,30.05,10.0,SSW,3.5,-,N/A,,Clear,200,2013-02-15 13:15:00
8:35 AM,35.6,33.8,93,30.06,10.0,WSW,3.5,-,N/A,,Clear,240,2013-02-15 13:35:00
8:55 AM,39.2,33.8,81,30.06,10.0,South,3.5,-,N/A,,Clear,190,2013-02-15 13:55:00
9:15 AM,41.0,33.8,76,30.06,10.0,SW,5.8,-,N/A,,Clear,220,2013-02-15 14:15:00
9:35 AM,42.8,33.8,70,30.05,10.0,SW,5.8,-,N/A,,Clear,230,2013-02-15 14:35:00
9:55 AM,44.6,33.8,66,30.05,10.0,SW,5.8,-,N/A,,Clear,220,2013-02-15 14:55:00
10:15 AM,46.4,35.6,66,30.04,10.0,SW,13.8,-,N/A,,Clear,230,2013-02-15 15:15:00
10:35 AM,48.2,35.6,62,30.03,10.0,SW,13.8,-,N/A,,Clear,230,2013-02-15 15:35:00
10:55 AM,48.2,33.8,58,30.03,10.0,SSW,16.1,-,N/A,,Clear,210,2013-02-15 15:55:00
11:15 AM,48.2,33.8,58,30.03,10.0,SW,10.4,-,N/A,,Clear,220,2013-02-15 16:15:00
11:35 AM,51.8,33.8,50,30.02,10.0,SW,15.0,-,N/A,,Clear,220,2013-02-15 16:35:00
12:15 PM,51.8,32.0,47,30.00,10.0,SW,16.1,19.6,N/A,,Clear,220,2013-02-15 17:15:00
12:55 PM,53.6,28.4,38,29.97,10.0,SW,20.7,25.3,N/A,,Scattered Clouds,230,2013-02-15 17:55:00
1:15 PM,53.6,28.4,38,29.96,10.0,WSW,19.6,25.3,N/A,,Clear,240,2013-02-15 18:15:00
1:35 PM,53.6,26.6,35,29.95,10.0,SW,17.3,-,N/A,,Clear,220,2013-02-15 18:35:00
1:55 PM,53.6,26.6,35,29.94,10.0,WSW,19.6,25.3,N/A,,Scattered Clouds,240,2013-02-15 18:55:00
2:15 PM,51.8,26.6,38,29.94,10.0,SW,17.3,21.9,N/A,,Mostly Cloudy,230,2013-02-15 19:15:00
2:35 PM,55.4,26.6,33,29.93,10.0,WSW,17.3,20.7,N/A,,Mostly Cloudy,240,2013-02-15 19:35:00
2:55 PM,53.6,24.8,33,29.92,10.0,WSW,19.6,26.5,N/A,,Overcast,240,2013-02-15 19:55:00
3:15 PM,51.8,26.6,38,29.91,10.0,WSW,15.0,28.8,N/A,,Overcast,240,2013-02-15 20:15:00
3:35 PM,51.8,26.6,38,29.91,10.0,WSW,16.1,19.6,N/A,,Mostly Cloudy,250,2013-02-15 20:35:00
3:55 PM,51.8,26.6,38,29.91,10.0,WSW,12.7,-,N/A,,Mostly Cloudy,250,2013-02-15 20:55:00
4:15 PM,51.8,28.4,41,29.92,10.0,West,16.1,23.0,N/A,,Overcast,270,2013-02-15 21:15:00
4:35 PM,46.4,35.6,66,29.94,10.0,WNW,20.7,25.3,N/A,,Mostly Cloudy,290,2013-02-15 21:35:00
4:55 PM,44.6,37.4,76,29.94,10.0,WNW,13.8,-,N/A,,Overcast,300,2013-02-15 21:55:00
5:15 PM,44.6,37.4,76,29.96,10.0,WNW,10.4,-,N/A,,Overcast,300,2013-02-15 22:15:00
5:35 PM,42.8,37.4,81,29.96,10.0,NNW,8.1,-,N/A,Rain,Light Rain,330,2013-02-15 22:35:00
5:55 PM,39.2,35.6,87,29.98,10.0,NW,8.1,16.1,N/A,Rain,Rain,320,2013-02-15 22:55:00
6:15 PM,37.4,35.6,93,29.99,10.0,NW,5.8,18.4,N/A,Rain,Light Rain,320,2013-02-15 23:15:00
6:35 PM,37.4,35.6,93,30.01,10.0,WNW,8.1,-,N/A,,Light Drizzle,300,2013-02-15 23:35:00
6:55 PM,35.6,33.8,93,30.01,10.0,NW,11.5,-,N/A,Snow,Light Snow,310,2013-02-15 23:55:00
7:15 PM,35.6,32.0,87,30.01,10.0,WNW,8.1,-,N/A,,Overcast,300,2013-02-16 00:15:00
7:35 PM,35.6,32.0,87,30.02,10.0,WNW,4.6,-,N/A,,Overcast,290,2013-02-16 00:35:00
7:55 PM,35.6,33.8,93,30.03,10.0,West,5.8,-,N/A,,Overcast,260,2013-02-16 00:55:00
8:15 PM,35.6,32.0,87,30.02,10.0,WNW,5.8,-,N/A,,Overcast,290,2013-02-16 01:15:00
8:35 PM,35.6,32.0,87,30.03,10.0,West,4.6,-,N/A,,Overcast,280,2013-02-16 01:35:00
8:55 PM,35.6,33.8,93,30.03,10.0,Calm,Calm,-,N/A,,Overcast,0,2013-02-16 01:55:00
9:15 PM,33.8,32.0,93,30.02,10.0,West,4.6,-,N/A,,Overcast,270,2013-02-16 02:15:00
9:35 PM,33.8,33.8,100,30.03,10.0,West,4.6,-,N/A,,Overcast,260,2013-02-16 02:35:00
9:55 PM,35.6,32.0,87,30.03,10.0,West,4.6,-,N/A,,Overcast,280,2013-02-16 02:55:00
10:15 PM,33.8,30.2,87,30.02,10.0,WNW,8.1,-,N/A,,Mostly Cloudy,290,2013-02-16 03:15:00
10:35 PM,35.6,30.2,81,30.02,10.0,NW,9.2,-,N/A,,Mostly Cloudy,310,2013-02-16 03:35:00
10:55 PM,35.6,30.2,81,30.02,10.0,West,5.8,-,N/A,,Overcast,280,2013-02-16 03:55:00
11:15 PM,33.8,30.2,87,30.01,10.0,WNW,5.8,-,N/A,,Overcast,290,2013-02-16 04:15:00
11:35 PM,33.8,28.4,81,30.01,10.0,NW,8.1,-,N/A,,Overcast,310,2013-02-16 04:35:00
11:55 PM,33.8,26.6,75,30.00,10.0,West,5.8,-,N/A,,Scattered Clouds,270,2013-02-16 04:55:00